Year,Month,Day,Hour,Minute,Value (Times are PST for temperature in C)
2005,04,23,00,01,13.10
2005,04,23,00,02,13.10
2005,04,23,00,03,13.10
2005,04,23,00,04,13.10
2005,04,23,00,05,13.10
2005,04,23,00,06,13.20
2005,04,23,00,07,13.20
2005,04,23,00,08,13.20
2005,04,23,00,09,13.30
2005,04,23,00,10,13.30
2005,04,23,00,11,13.30
2005,04,23,00,12,13.20
2005,04,23,00,13,13.20
2005,04,23,00,14,13.10
2005,04,23,00,15,13.10
2005,04,23,00,16,13.00
2005,04,23,00,17,13.00
2005,04,23,00,18,12.90
2005,04,23,00,19,12.80
2005,04,23,00,20,12.90
2005,04,23,00,21,13.00
2005,04,23,00,22,13.00
2005,04,23,00,23,13.00
2005,04,23,00,24,12.90
2005,04,23,00,25,12.80
2005,04,23,00,26,12.80
2005,04,23,00,27,12.80
2005,04,23,00,28,12.70
2005,04,23,00,29,12.70
2005,04,23,00,30,12.60
2005,04,23,00,31,12.60
2005,04,23,00,32,12.60
2005,04,23,00,33,12.60
2005,04,23,00,34,12.60
2005,04,23,00,35,12.60
2005,04,23,00,36,12.70
2005,04,23,00,37,12.70
2005,04,23,00,38,12.80
2005,04,23,00,39,12.90
2005,04,23,00,40,13.00
2005,04,23,00,41,13.10
2005,04,23,00,42,13.10
2005,04,23,00,43,13.20
2005,04,23,00,44,13.20
2005,04,23,00,45,13.20
2005,04,23,00,46,13.30
2005,04,23,00,47,13.30
2005,04,23,00,48,13.30
2005,04,23,00,49,13.30
2005,04,23,00,50,13.20
2005,04,23,00,51,13.20
2005,04,23,00,52,13.10
2005,04,23,00,53,13.10
2005,04,23,00,54,13.00
2005,04,23,00,55,13.00
2005,04,23,00,56,13.00
2005,04,23,00,57,13.00
2005,04,23,00,58,13.00
2005,04,23,00,59,12.90
2005,04,23,01,00,13.00
2005,04,23,01,01,13.00
2005,04,23,01,02,13.00
2005,04,23,01,03,13.00
2005,04,23,01,04,12.90
2005,04,23,01,05,12.90
2005,04,23,01,06,12.90
2005,04,23,01,07,12.80
2005,04,23,01,08,12.70
2005,04,23,01,09,12.60
2005,04,23,01,10,12.60
2005,04,23,01,11,12.50
2005,04,23,01,12,12.50
2005,04,23,01,13,12.50
2005,04,23,01,14,12.50
2005,04,23,01,15,12.40
2005,04,23,01,16,12.40
2005,04,23,01,17,12.30
2005,04,23,01,18,12.30
2005,04,23,01,19,12.30
2005,04,23,01,20,12.30
2005,04,23,01,21,12.20
2005,04,23,01,22,12.20
2005,04,23,01,23,12.20
2005,04,23,01,24,12.20
2005,04,23,01,25,12.30
2005,04,23,01,26,12.30
2005,04,23,01,27,12.30
2005,04,23,01,28,12.30
2005,04,23,01,29,12.30
2005,04,23,01,30,12.40
2005,04,23,01,31,12.40
2005,04,23,01,32,12.50
2005,04,23,01,33,12.60
2005,04,23,01,34,12.60
2005,04,23,01,35,12.60
2005,04,23,01,36,12.60
2005,04,23,01,37,12.60
2005,04,23,01,38,12.60
2005,04,23,01,39,12.70
2005,04,23,01,40,12.70
2005,04,23,01,41,12.70
2005,04,23,01,42,12.80
2005,04,23,01,43,12.80
2005,04,23,01,44,12.80
2005,04,23,01,45,12.80
2005,04,23,01,46,12.70
2005,04,23,01,47,12.70
2005,04,23,01,48,12.60
2005,04,23,01,49,12.60
2005,04,23,01,50,12.60
2005,04,23,01,51,12.50
2005,04,23,01,52,12.50
2005,04,23,01,53,12.40
2005,04,23,01,54,12.40
2005,04,23,01,55,12.50
2005,04,23,01,56,12.50
2005,04,23,01,57,12.60
2005,04,23,01,58,12.70
2005,04,23,01,59,12.80
2005,04,23,02,00,12.80
2005,04,23,02,01,12.90
2005,04,23,02,02,12.90
2005,04,23,02,03,13.00
2005,04,23,02,04,13.00
2005,04,23,02,05,13.10
2005,04,23,02,06,13.10
2005,04,23,02,07,13.10
2005,04,23,02,08,13.20
2005,04,23,02,09,13.20
2005,04,23,02,10,13.20
2005,04,23,02,11,13.20
2005,04,23,02,12,13.20
2005,04,23,02,13,13.20
2005,04,23,02,14,13.20
2005,04,23,02,15,13.20
2005,04,23,02,16,13.20
2005,04,23,02,17,13.30
2005,04,23,02,18,13.30
2005,04,23,02,19,13.30
2005,04,23,02,20,13.30
2005,04,23,02,21,13.30
2005,04,23,02,22,13.30
2005,04,23,02,23,13.20
2005,04,23,02,24,13.20
2005,04,23,02,25,13.20
2005,04,23,02,26,13.20
2005,04,23,02,27,13.10
2005,04,23,02,28,13.10
2005,04,23,02,29,13.10
2005,04,23,02,30,13.00
2005,04,23,02,31,13.00
2005,04,23,02,32,13.00
2005,04,23,02,33,13.00
2005,04,23,02,34,13.00
2005,04,23,02,35,13.00
2005,04,23,02,36,13.00
2005,04,23,02,37,13.00
2005,04,23,02,38,13.00
2005,04,23,02,39,13.10
2005,04,23,02,40,13.10
2005,04,23,02,41,13.20
2005,04,23,02,42,13.30
2005,04,23,02,43,13.30
2005,04,23,02,44,13.30
2005,04,23,02,45,13.40
2005,04,23,02,46,13.40
2005,04,23,02,47,13.40
2005,04,23,02,48,13.40
2005,04,23,02,49,13.30
2005,04,23,02,50,13.30
2005,04,23,02,51,13.30
2005,04,23,02,52,13.30
2005,04,23,02,53,13.30
2005,04,23,02,54,13.30
2005,04,23,02,55,13.30
2005,04,23,02,56,13.30
2005,04,23,02,57,13.30
2005,04,23,02,58,13.30
2005,04,23,02,59,13.30
2005,04,23,03,00,13.30
2005,04,23,03,01,13.30
2005,04,23,03,02,13.30
2005,04,23,03,03,13.30
2005,04,23,03,04,13.30
2005,04,23,03,05,13.30
2005,04,23,03,06,13.30
2005,04,23,03,07,13.20
2005,04,23,03,08,13.20
2005,04,23,03,09,13.20
2005,04,23,03,10,13.20
2005,04,23,03,11,13.20
2005,04,23,03,12,13.10
2005,04,23,03,13,13.10
2005,04,23,03,14,13.10
2005,04,23,03,15,13.10
2005,04,23,03,16,13.10
2005,04,23,03,17,13.00
2005,04,23,03,18,13.00
2005,04,23,03,19,13.00
2005,04,23,03,20,12.90
2005,04,23,03,21,12.90
2005,04,23,03,22,12.80
2005,04,23,03,23,12.80
2005,04,23,03,24,12.80
2005,04,23,03,25,12.80
2005,04,23,03,26,12.80
2005,04,23,03,27,12.80
2005,04,23,03,28,12.80
2005,04,23,03,29,12.80
2005,04,23,03,30,12.80
2005,04,23,03,31,12.90
2005,04,23,03,32,12.90
2005,04,23,03,33,13.00
2005,04,23,03,34,13.10
2005,04,23,03,35,13.20
2005,04,23,03,36,13.20
2005,04,23,03,37,13.30
2005,04,23,03,38,13.30
2005,04,23,03,39,13.40
2005,04,23,03,40,13.50
2005,04,23,03,41,13.50
2005,04,23,03,42,13.60
2005,04,23,03,43,13.60
2005,04,23,03,44,13.70
2005,04,23,03,45,13.70
2005,04,23,03,46,13.70
2005,04,23,03,47,13.70
2005,04,23,03,48,13.80
2005,04,23,03,49,13.90
2005,04,23,03,50,13.90
2005,04,23,03,51,13.90
2005,04,23,03,52,13.80
2005,04,23,03,53,13.80
2005,04,23,03,54,13.80
2005,04,23,03,55,13.80
2005,04,23,03,56,13.90
2005,04,23,03,57,13.90
2005,04,23,03,58,13.90
2005,04,23,03,59,14.00
2005,04,23,04,00,14.20
2005,04,23,04,01,14.30
2005,04,23,04,02,14.30
2005,04,23,04,03,14.30
2005,04,23,04,04,14.30
2005,04,23,04,05,14.30
2005,04,23,04,06,14.20
2005,04,23,04,07,14.10
2005,04,23,04,08,14.00
2005,04,23,04,09,14.00
2005,04,23,04,10,13.90
2005,04,23,04,11,13.80
2005,04,23,04,12,13.80
2005,04,23,04,13,13.70
2005,04,23,04,14,13.70
2005,04,23,04,15,13.70
2005,04,23,04,16,13.70
2005,04,23,04,17,13.70
2005,04,23,04,18,13.70
2005,04,23,04,19,13.60
2005,04,23,04,20,13.60
2005,04,23,04,21,13.60
2005,04,23,04,22,13.60
2005,04,23,04,23,13.60
2005,04,23,04,24,13.60
2005,04,23,04,25,13.60
2005,04,23,04,26,13.60
2005,04,23,04,27,13.60
2005,04,23,04,28,13.50
2005,04,23,04,29,13.50
2005,04,23,04,30,13.60
2005,04,23,04,31,13.60
2005,04,23,04,32,13.60
2005,04,23,04,33,13.60
2005,04,23,04,34,13.60
2005,04,23,04,35,13.60
2005,04,23,04,36,13.60
2005,04,23,04,37,13.70
2005,04,23,04,38,13.70
2005,04,23,04,39,13.70
2005,04,23,04,40,13.70
2005,04,23,04,41,13.70
2005,04,23,04,42,13.70
2005,04,23,04,43,13.70
2005,04,23,04,44,13.70
2005,04,23,04,45,13.70
2005,04,23,04,46,13.70
2005,04,23,04,47,13.70
2005,04,23,04,48,13.70
2005,04,23,04,49,13.70
2005,04,23,04,50,13.70
2005,04,23,04,51,13.70
2005,04,23,04,52,13.70
2005,04,23,04,53,13.70
2005,04,23,04,54,13.70
2005,04,23,04,55,13.70
2005,04,23,04,56,13.60
2005,04,23,04,57,13.60
2005,04,23,04,58,13.60
2005,04,23,04,59,13.60
2005,04,23,05,00,13.70
2005,04,23,05,01,13.70
2005,04,23,05,02,13.70
2005,04,23,05,03,13.70
2005,04,23,05,04,13.70
2005,04,23,05,05,13.70
2005,04,23,05,06,13.70
2005,04,23,05,07,13.70
2005,04,23,05,08,13.70
2005,04,23,05,09,13.70
2005,04,23,05,10,13.70
2005,04,23,05,11,13.70
2005,04,23,05,12,13.70
2005,04,23,05,13,13.70
2005,04,23,05,14,13.70
2005,04,23,05,15,13.70
2005,04,23,05,16,13.70
2005,04,23,05,17,13.70
2005,04,23,05,18,13.70
2005,04,23,05,19,13.70
2005,04,23,05,20,13.70
2005,04,23,05,21,13.70
2005,04,23,05,22,13.70
2005,04,23,05,23,13.70
2005,04,23,05,24,13.70
2005,04,23,05,25,13.70
2005,04,23,05,26,13.70
2005,04,23,05,27,13.70
2005,04,23,05,28,13.70
2005,04,23,05,29,13.70
2005,04,23,05,30,13.70
2005,04,23,05,31,13.70
2005,04,23,05,32,13.70
2005,04,23,05,33,13.70
2005,04,23,05,34,13.70
2005,04,23,05,35,13.70
2005,04,23,05,36,13.70
2005,04,23,05,37,13.70
2005,04,23,05,38,13.70
2005,04,23,05,39,13.70
2005,04,23,05,40,13.70
2005,04,23,05,41,13.70
2005,04,23,05,42,13.70
2005,04,23,05,43,13.70
2005,04,23,05,44,13.60
2005,04,23,05,45,13.60
2005,04,23,05,46,13.60
2005,04,23,05,47,13.60
2005,04,23,05,48,13.60
2005,04,23,05,49,13.60
2005,04,23,05,50,13.50
2005,04,23,05,51,13.50
2005,04,23,05,52,13.50
2005,04,23,05,53,13.50
2005,04,23,05,54,13.50
2005,04,23,05,55,13.50
2005,04,23,05,56,13.50
2005,04,23,05,57,13.50
2005,04,23,05,58,13.50
2005,04,23,05,59,13.50
2005,04,23,06,00,13.50
2005,04,23,06,01,13.50
2005,04,23,06,02,13.50
2005,04,23,06,03,13.50
2005,04,23,06,04,13.50
2005,04,23,06,05,13.50
2005,04,23,06,06,13.50
2005,04,23,06,07,13.50
2005,04,23,06,08,13.50
2005,04,23,06,09,13.50
2005,04,23,06,10,13.50
2005,04,23,06,11,13.50
2005,04,23,06,12,13.50
2005,04,23,06,13,13.50
2005,04,23,06,14,13.50
2005,04,23,06,15,13.50
2005,04,23,06,16,13.60
2005,04,23,06,17,13.60
2005,04,23,06,18,13.60
2005,04,23,06,19,13.60
2005,04,23,06,20,13.70
2005,04,23,06,21,13.70
2005,04,23,06,22,13.70
2005,04,23,06,23,13.70
2005,04,23,06,24,13.70
2005,04,23,06,25,13.70
2005,04,23,06,26,13.70
2005,04,23,06,27,13.70
2005,04,23,06,28,13.80
2005,04,23,06,29,13.80
2005,04,23,06,30,13.80
2005,04,23,06,31,13.80
2005,04,23,06,32,13.80
2005,04,23,06,33,13.90
2005,04,23,06,34,13.90
2005,04,23,06,35,13.90
2005,04,23,06,36,13.90
2005,04,23,06,37,13.90
2005,04,23,06,38,13.90
2005,04,23,06,39,13.90
2005,04,23,06,40,14.00
2005,04,23,06,41,14.00
2005,04,23,06,42,14.00
2005,04,23,06,43,14.00
2005,04,23,06,44,14.00
2005,04,23,06,45,14.00
2005,04,23,06,46,14.00
2005,04,23,06,47,14.00
2005,04,23,06,48,14.00
2005,04,23,06,49,14.00
2005,04,23,06,50,14.10
2005,04,23,06,51,14.10
2005,04,23,06,52,14.10
2005,04,23,06,53,14.10
2005,04,23,06,54,14.20
2005,04,23,06,55,14.20
2005,04,23,06,56,14.20
2005,04,23,06,57,14.20
2005,04,23,06,58,14.20
2005,04,23,06,59,14.20
2005,04,23,07,00,14.30
2005,04,23,07,01,14.30
2005,04,23,07,02,14.40
2005,04,23,07,03,14.40
2005,04,23,07,04,14.40
2005,04,23,07,05,14.50
2005,04,23,07,06,14.50
2005,04,23,07,07,14.50
2005,04,23,07,08,14.50
2005,04,23,07,09,14.50
2005,04,23,07,10,14.50
2005,04,23,07,11,14.50
2005,04,23,07,12,14.50
2005,04,23,07,13,14.60
2005,04,23,07,14,14.60
2005,04,23,07,15,14.60
2005,04,23,07,16,14.60
2005,04,23,07,17,14.60
2005,04,23,07,18,14.60
2005,04,23,07,19,14.60
2005,04,23,07,20,14.60
2005,04,23,07,21,14.60
2005,04,23,07,22,14.60
2005,04,23,07,23,14.60
2005,04,23,07,24,14.50
2005,04,23,07,25,14.60
2005,04,23,07,26,14.60
2005,04,23,07,27,14.60
2005,04,23,07,28,14.60
2005,04,23,07,29,14.60
2005,04,23,07,30,14.60
2005,04,23,07,31,14.60
2005,04,23,07,32,14.70
2005,04,23,07,33,14.70
2005,04,23,07,34,14.70
2005,04,23,07,35,14.80
2005,04,23,07,36,14.80
2005,04,23,07,37,14.80
2005,04,23,07,38,14.80
2005,04,23,07,39,14.80
2005,04,23,07,40,14.90
2005,04,23,07,41,14.90
2005,04,23,07,42,15.00
2005,04,23,07,43,15.00
2005,04,23,07,44,15.00
2005,04,23,07,45,15.00
2005,04,23,07,46,15.10
2005,04,23,07,47,15.10
2005,04,23,07,48,15.10
2005,04,23,07,49,15.10
2005,04,23,07,50,15.10
2005,04,23,07,51,15.10
2005,04,23,07,52,15.10
2005,04,23,07,53,15.20
2005,04,23,07,54,15.20
2005,04,23,07,55,15.10
2005,04,23,07,56,15.10
2005,04,23,07,57,15.10
2005,04,23,07,58,15.10
2005,04,23,07,59,15.10
2005,04,23,08,00,15.10
2005,04,23,08,01,15.10
2005,04,23,08,02,15.10
2005,04,23,08,03,15.10
2005,04,23,08,04,15.10
2005,04,23,08,05,15.10
2005,04,23,08,06,15.10
2005,04,23,08,07,15.10
2005,04,23,08,08,15.10
2005,04,23,08,09,15.10
2005,04,23,08,10,15.10
2005,04,23,08,11,15.10
2005,04,23,08,12,15.10
2005,04,23,08,13,15.10
2005,04,23,08,14,15.20
2005,04,23,08,15,15.30
2005,04,23,08,16,15.30
2005,04,23,08,17,15.30
2005,04,23,08,18,15.30
2005,04,23,08,19,15.30
2005,04,23,08,20,15.30
2005,04,23,08,21,15.30
2005,04,23,08,22,15.30
2005,04,23,08,23,15.20
2005,04,23,08,24,15.20
2005,04,23,08,25,15.20
2005,04,23,08,26,15.20
2005,04,23,08,27,15.30
2005,04,23,08,28,15.30
2005,04,23,08,29,15.30
2005,04,23,08,30,15.30
2005,04,23,08,31,15.30
2005,04,23,08,32,15.30
2005,04,23,08,33,15.30
2005,04,23,08,34,15.30
2005,04,23,08,35,15.40
2005,04,23,08,36,15.40
2005,04,23,08,37,15.40
2005,04,23,08,38,15.40
2005,04,23,08,39,15.50
2005,04,23,08,40,15.50
2005,04,23,08,41,15.60
2005,04,23,08,42,15.60
2005,04,23,08,43,15.70
2005,04,23,08,44,15.80
2005,04,23,08,45,15.80
2005,04,23,08,46,15.80
2005,04,23,08,47,15.90
2005,04,23,08,48,16.00
2005,04,23,08,49,16.10
2005,04,23,08,50,16.10
2005,04,23,08,51,16.10
2005,04,23,08,52,16.10
2005,04,23,08,53,16.10
2005,04,23,08,54,16.10
2005,04,23,08,55,16.20
2005,04,23,08,56,16.20
2005,04,23,08,57,16.20
2005,04,23,08,58,16.20
2005,04,23,08,59,16.20
2005,04,23,09,00,16.20
2005,04,23,09,01,16.30
2005,04,23,09,02,16.30
2005,04,23,09,03,16.30
2005,04,23,09,04,16.30
2005,04,23,09,05,16.20
2005,04,23,09,06,16.20
2005,04,23,09,07,16.20
2005,04,23,09,08,16.20
2005,04,23,09,09,16.20
2005,04,23,09,10,16.20
2005,04,23,09,11,16.30
2005,04,23,09,12,16.30
2005,04,23,09,13,16.40
2005,04,23,09,14,16.40
2005,04,23,09,15,16.40
2005,04,23,09,16,16.40
2005,04,23,09,17,16.40
2005,04,23,09,18,16.40
2005,04,23,09,19,16.40
2005,04,23,09,20,16.50
2005,04,23,09,21,16.60
2005,04,23,09,22,16.60
2005,04,23,09,23,16.60
2005,04,23,09,24,16.60
2005,04,23,09,25,16.60
2005,04,23,09,26,16.70
2005,04,23,09,27,16.70
2005,04,23,09,28,16.70
2005,04,23,09,29,16.70
2005,04,23,09,30,16.70
2005,04,23,09,31,16.70
2005,04,23,09,32,16.70
2005,04,23,09,33,16.70
2005,04,23,09,34,16.70
2005,04,23,09,35,16.70
2005,04,23,09,36,16.70
2005,04,23,09,37,16.70
2005,04,23,09,38,16.70
2005,04,23,09,39,16.70
2005,04,23,09,40,16.70
2005,04,23,09,41,16.70
2005,04,23,09,42,16.70
2005,04,23,09,43,16.80
2005,04,23,09,44,16.80
2005,04,23,09,45,16.80
2005,04,23,09,46,16.80
2005,04,23,09,47,16.80
2005,04,23,09,48,16.80
2005,04,23,09,49,16.70
2005,04,23,09,50,16.70
2005,04,23,09,51,16.70
2005,04,23,09,52,16.80
2005,04,23,09,53,16.80
2005,04,23,09,54,16.70
2005,04,23,09,55,16.80
2005,04,23,09,56,16.80
2005,04,23,09,57,16.80
2005,04,23,09,58,16.90
2005,04,23,09,59,16.90
2005,04,23,10,00,17.00
2005,04,23,10,01,17.00
2005,04,23,10,02,17.10
2005,04,23,10,03,17.10
2005,04,23,10,04,17.20
2005,04,23,10,05,17.20
2005,04,23,10,06,17.10
2005,04,23,10,07,17.10
2005,04,23,10,08,17.10
2005,04,23,10,09,17.00
2005,04,23,10,10,17.10
2005,04,23,10,11,17.10
2005,04,23,10,12,17.20
2005,04,23,10,13,17.20
2005,04,23,10,14,17.30
2005,04,23,10,15,17.30
2005,04,23,10,16,17.40
2005,04,23,10,17,17.40
2005,04,23,10,18,17.50
2005,04,23,10,19,17.60
2005,04,23,10,20,17.60
2005,04,23,10,21,17.60
2005,04,23,10,22,17.50
2005,04,23,10,23,17.50
2005,04,23,10,24,17.50
2005,04,23,10,25,17.60
2005,04,23,10,26,17.70
2005,04,23,10,27,17.70
2005,04,23,10,28,17.80
2005,04,23,10,29,17.90
2005,04,23,10,30,17.90
2005,04,23,10,31,17.90
2005,04,23,10,32,18.00
2005,04,23,10,33,18.00
2005,04,23,10,34,18.10
2005,04,23,10,35,18.10
2005,04,23,10,36,18.10
2005,04,23,10,37,18.10
2005,04,23,10,38,18.00
2005,04,23,10,39,17.90
2005,04,23,10,40,18.00
2005,04,23,10,41,17.90
2005,04,23,10,42,17.90
2005,04,23,10,43,17.90
2005,04,23,10,44,17.90
2005,04,23,10,45,17.90
2005,04,23,10,46,18.00
2005,04,23,10,47,18.10
2005,04,23,10,48,18.20
2005,04,23,10,49,18.40
2005,04,23,10,50,18.40
2005,04,23,10,51,18.50
2005,04,23,10,52,18.60
2005,04,23,10,53,18.60
2005,04,23,10,54,18.70
2005,04,23,10,55,18.80
2005,04,23,10,56,18.90
2005,04,23,10,57,18.80
2005,04,23,10,58,18.70
2005,04,23,10,59,18.70
2005,04,23,11,00,18.60
2005,04,23,11,01,18.60
2005,04,23,11,02,18.60
2005,04,23,11,03,18.60
2005,04,23,11,04,18.60
2005,04,23,11,05,18.60
2005,04,23,11,06,18.50
2005,04,23,11,07,18.50
2005,04,23,11,08,18.60
2005,04,23,11,09,18.60
2005,04,23,11,10,18.70
2005,04,23,11,11,18.70
2005,04,23,11,12,18.70
2005,04,23,11,13,18.70
2005,04,23,11,14,18.60
2005,04,23,11,15,18.60
2005,04,23,11,16,18.60
2005,04,23,11,17,18.50
2005,04,23,11,18,18.60
2005,04,23,11,19,18.60
2005,04,23,11,20,18.60
2005,04,23,11,21,18.50
2005,04,23,11,22,18.50
2005,04,23,11,23,18.50
2005,04,23,11,24,18.50
2005,04,23,11,25,18.50
2005,04,23,11,26,18.40
2005,04,23,11,27,18.50
2005,04,23,11,28,18.50
2005,04,23,11,29,18.60
2005,04,23,11,30,18.70
2005,04,23,11,31,18.80
2005,04,23,11,32,18.90
2005,04,23,11,33,18.90
2005,04,23,11,34,19.10
2005,04,23,11,35,19.10
2005,04,23,11,36,19.10
2005,04,23,11,37,19.20
2005,04,23,11,38,19.30
2005,04,23,11,39,19.40
2005,04,23,11,40,19.50
2005,04,23,11,41,19.40
2005,04,23,11,42,19.40
2005,04,23,11,43,19.30
2005,04,23,11,44,19.20
2005,04,23,11,45,19.00
2005,04,23,11,46,18.90
2005,04,23,11,47,18.90
2005,04,23,11,48,19.00
2005,04,23,11,49,18.90
2005,04,23,11,50,19.00
2005,04,23,11,51,19.00
2005,04,23,11,52,19.10
2005,04,23,11,53,19.10
2005,04,23,11,54,19.10
2005,04,23,11,55,19.10
2005,04,23,11,56,19.10
2005,04,23,11,57,19.10
2005,04,23,11,58,19.20
2005,04,23,11,59,19.20
2005,04,23,12,00,19.20
2005,04,23,12,01,19.20
2005,04,23,12,02,19.20
2005,04,23,12,03,19.20
2005,04,23,12,04,19.30
2005,04,23,12,05,19.30
2005,04,23,12,06,19.20
2005,04,23,12,07,19.10
2005,04,23,12,08,19.00
2005,04,23,12,09,18.90
2005,04,23,12,10,19.10
2005,04,23,12,11,19.10
2005,04,23,12,12,19.20
2005,04,23,12,13,19.30
2005,04,23,12,14,19.40
2005,04,23,12,15,19.40
2005,04,23,12,16,19.40
2005,04,23,12,17,19.50
2005,04,23,12,18,19.60
2005,04,23,12,19,19.60
2005,04,23,12,20,19.60
2005,04,23,12,21,19.60
2005,04,23,12,22,19.60
2005,04,23,12,23,19.60
2005,04,23,12,24,19.60
2005,04,23,12,25,19.50
2005,04,23,12,26,19.50
2005,04,23,12,27,19.60
2005,04,23,12,28,19.60
2005,04,23,12,29,19.60
2005,04,23,12,30,19.70
2005,04,23,12,31,19.80
2005,04,23,12,32,19.80
2005,04,23,12,33,19.90
2005,04,23,12,34,19.80
2005,04,23,12,35,19.90
2005,04,23,12,36,20.00
2005,04,23,12,37,20.10
2005,04,23,12,38,20.00
2005,04,23,12,39,19.90
2005,04,23,12,40,19.90
2005,04,23,12,41,19.90
2005,04,23,12,42,19.90
2005,04,23,12,43,19.90
2005,04,23,12,44,20.00
2005,04,23,12,45,20.10
2005,04,23,12,46,20.20
2005,04,23,12,47,20.40
2005,04,23,12,48,20.50
2005,04,23,12,49,20.60
2005,04,23,12,50,20.50
2005,04,23,12,51,20.50
2005,04,23,12,52,20.60
2005,04,23,12,53,20.70
2005,04,23,12,54,20.80
2005,04,23,12,55,20.80
2005,04,23,12,56,20.70
2005,04,23,12,57,20.70
2005,04,23,12,58,20.70
2005,04,23,12,59,20.60
2005,04,23,13,00,20.50
2005,04,23,13,01,20.70
2005,04,23,13,02,20.80
2005,04,23,13,03,20.90
2005,04,23,13,04,20.90
2005,04,23,13,05,21.00
2005,04,23,13,06,21.00
2005,04,23,13,07,20.90
2005,04,23,13,08,20.80
2005,04,23,13,09,20.80
2005,04,23,13,10,20.70
2005,04,23,13,11,20.80
2005,04,23,13,12,20.80
2005,04,23,13,13,20.80
2005,04,23,13,14,20.80
2005,04,23,13,15,20.90
2005,04,23,13,16,21.00
2005,04,23,13,17,21.00
2005,04,23,13,18,21.00
2005,04,23,13,19,21.00
2005,04,23,13,20,21.00
2005,04,23,13,21,21.00
2005,04,23,13,22,21.00
2005,04,23,13,23,21.00
2005,04,23,13,24,20.90
2005,04,23,13,25,20.90
2005,04,23,13,26,20.80
2005,04,23,13,27,20.90
2005,04,23,13,28,21.00
2005,04,23,13,29,21.00
2005,04,23,13,30,21.10
2005,04,23,13,31,21.20
2005,04,23,13,32,21.30
2005,04,23,13,33,21.30
2005,04,23,13,34,21.30
2005,04,23,13,35,21.30
2005,04,23,13,36,21.30
2005,04,23,13,37,21.40
2005,04,23,13,38,21.40
2005,04,23,13,39,21.40
2005,04,23,13,40,21.40
2005,04,23,13,41,21.30
2005,04,23,13,42,21.30
2005,04,23,13,43,21.20
2005,04,23,13,44,21.10
2005,04,23,13,45,21.10
2005,04,23,13,46,21.10
2005,04,23,13,47,21.10
2005,04,23,13,48,21.10
2005,04,23,13,49,21.10
2005,04,23,13,50,21.00
2005,04,23,13,51,21.10
2005,04,23,13,52,21.10
2005,04,23,13,53,21.10
2005,04,23,13,54,21.30
2005,04,23,13,55,21.30
2005,04,23,13,56,21.30
2005,04,23,13,57,21.20
2005,04,23,13,58,21.20
2005,04,23,13,59,21.30
2005,04,23,14,00,21.30
2005,04,23,14,01,21.20
2005,04,23,14,02,21.20
2005,04,23,14,03,21.10
2005,04,23,14,04,21.10
2005,04,23,14,05,21.10
2005,04,23,14,06,21.20
2005,04,23,14,07,21.10
2005,04,23,14,08,21.10
2005,04,23,14,09,21.00
2005,04,23,14,10,21.00
2005,04,23,14,11,20.90
2005,04,23,14,12,20.80
2005,04,23,14,13,20.80
2005,04,23,14,14,20.70
2005,04,23,14,15,20.70
2005,04,23,14,16,20.70
2005,04,23,14,17,20.70
2005,04,23,14,18,20.70
2005,04,23,14,19,20.70
2005,04,23,14,20,20.70
2005,04,23,14,21,20.80
2005,04,23,14,22,20.80
2005,04,23,14,23,20.90
2005,04,23,14,24,20.90
2005,04,23,14,25,20.90
2005,04,23,14,26,20.90
2005,04,23,14,27,20.90
2005,04,23,14,28,20.90
2005,04,23,14,29,21.00
2005,04,23,14,30,21.00
2005,04,23,14,31,21.00
2005,04,23,14,32,21.10
2005,04,23,14,33,21.20
2005,04,23,14,34,21.20
2005,04,23,14,35,21.30
2005,04,23,14,36,21.30
2005,04,23,14,37,21.20
2005,04,23,14,38,21.20
2005,04,23,14,39,21.10
2005,04,23,14,40,21.20
2005,04,23,14,41,21.20
2005,04,23,14,42,21.20
2005,04,23,14,43,21.30
2005,04,23,14,44,21.30
2005,04,23,14,45,21.20
2005,04,23,14,46,21.10
2005,04,23,14,47,21.00
2005,04,23,14,48,21.10
2005,04,23,14,49,21.20
2005,04,23,14,50,21.20
2005,04,23,14,51,21.10
2005,04,23,14,52,21.00
2005,04,23,14,53,21.10
2005,04,23,14,54,20.90
2005,04,23,14,55,20.70
2005,04,23,14,56,20.70
2005,04,23,14,57,20.80
2005,04,23,14,58,20.80
2005,04,23,14,59,20.80
2005,04,23,15,00,20.80
2005,04,23,15,01,20.80
2005,04,23,15,02,20.80
2005,04,23,15,03,20.70
2005,04,23,15,04,20.70
2005,04,23,15,05,20.70
2005,04,23,15,06,20.70
2005,04,23,15,07,20.70
2005,04,23,15,08,20.80
2005,04,23,15,09,20.90
2005,04,23,15,10,20.90
2005,04,23,15,11,20.90
2005,04,23,15,12,21.00
2005,04,23,15,13,20.80
2005,04,23,15,14,20.80
2005,04,23,15,15,20.80
2005,04,23,15,16,20.80
2005,04,23,15,17,20.80
2005,04,23,15,18,20.70
2005,04,23,15,19,20.70
2005,04,23,15,20,20.80
2005,04,23,15,21,20.90
2005,04,23,15,22,21.00
2005,04,23,15,23,21.00
2005,04,23,15,24,21.00
2005,04,23,15,25,20.80
2005,04,23,15,26,20.90
2005,04,23,15,27,20.90
2005,04,23,15,28,20.90
2005,04,23,15,29,20.90
2005,04,23,15,30,20.90
2005,04,23,15,31,20.90
2005,04,23,15,32,21.00
2005,04,23,15,33,21.10
2005,04,23,15,34,21.10
2005,04,23,15,35,21.20
2005,04,23,15,36,21.20
2005,04,23,15,37,21.00
2005,04,23,15,38,20.90
2005,04,23,15,39,20.90
2005,04,23,15,40,20.80
2005,04,23,15,41,20.90
2005,04,23,15,42,20.90
2005,04,23,15,43,20.80
2005,04,23,15,44,20.80
2005,04,23,15,45,20.70
2005,04,23,15,46,20.60
2005,04,23,15,47,20.60
2005,04,23,15,48,20.40
2005,04,23,15,49,20.30
2005,04,23,15,50,20.20
2005,04,23,15,51,20.10
2005,04,23,15,52,20.20
2005,04,23,15,53,20.30
2005,04,23,15,54,20.40
2005,04,23,15,55,20.50
2005,04,23,15,56,20.50
2005,04,23,15,57,20.50
2005,04,23,15,58,20.50
2005,04,23,15,59,20.70
2005,04,23,16,00,20.90
2005,04,23,16,01,21.00
2005,04,23,16,02,21.10
2005,04,23,16,03,21.10
2005,04,23,16,04,21.00
2005,04,23,16,05,20.90
2005,04,23,16,06,20.90
2005,04,23,16,07,21.00
2005,04,23,16,08,21.00
2005,04,23,16,09,21.00
2005,04,23,16,10,21.00
2005,04,23,16,11,21.00
2005,04,23,16,12,21.00
2005,04,23,16,13,20.90
2005,04,23,16,14,20.80
2005,04,23,16,15,20.80
2005,04,23,16,16,20.70
2005,04,23,16,17,20.70
2005,04,23,16,18,20.60
2005,04,23,16,19,20.60
2005,04,23,16,20,20.50
2005,04,23,16,21,20.30
2005,04,23,16,22,20.20
2005,04,23,16,23,20.30
2005,04,23,16,24,20.40
2005,04,23,16,25,20.50
2005,04,23,16,26,20.50
2005,04,23,16,27,20.50
2005,04,23,16,28,20.60
2005,04,23,16,29,20.60
2005,04,23,16,30,20.70
2005,04,23,16,31,20.70
2005,04,23,16,32,20.70
2005,04,23,16,33,20.80
2005,04,23,16,34,20.90
2005,04,23,16,35,20.90
2005,04,23,16,36,21.00
2005,04,23,16,37,21.00
2005,04,23,16,38,21.10
2005,04,23,16,39,20.90
2005,04,23,16,40,20.80
2005,04,23,16,41,20.90
2005,04,23,16,42,20.80
2005,04,23,16,43,20.90
2005,04,23,16,44,20.90
2005,04,23,16,45,20.80
2005,04,23,16,46,20.80
2005,04,23,16,47,20.80
2005,04,23,16,48,20.60
2005,04,23,16,49,20.60
2005,04,23,16,50,20.60
2005,04,23,16,51,20.60
2005,04,23,16,52,20.60
2005,04,23,16,53,20.60
2005,04,23,16,54,20.60
2005,04,23,16,55,20.70
2005,04,23,16,56,20.60
2005,04,23,16,57,20.60
2005,04,23,16,58,20.70
2005,04,23,16,59,20.70
2005,04,23,17,00,20.80
2005,04,23,17,01,20.80
2005,04,23,17,02,20.70
2005,04,23,17,03,20.70
2005,04,23,17,04,20.60
2005,04,23,17,05,20.50
2005,04,23,17,06,20.50
2005,04,23,17,07,20.50
2005,04,23,17,08,20.50
2005,04,23,17,09,20.60
2005,04,23,17,10,20.70
2005,04,23,17,11,20.70
2005,04,23,17,12,20.70
2005,04,23,17,13,20.70
2005,04,23,17,14,20.70
2005,04,23,17,15,20.60
2005,04,23,17,16,20.70
2005,04,23,17,17,20.60
2005,04,23,17,18,20.60
2005,04,23,17,19,20.70
2005,04,23,17,20,20.70